Погода в Молебке

Россия / Пермский край     57°14′14″N   57°56′11″E
темп.,
°C
ветер,
м/с
пор.,
м/с
влажн.,
%
обл.,
%
осадки,
мм/ч
давл.,
гПа
погр.,
м
10 августа, ср
ср1023:00+19св118280 0.0 101820
02:00+17вюв1183100 0.2 101815
05:00+16ююв1180100 0.3 101811
08:00+20юв1272100 0.0 1019118
11:00+25ююв235294 0.0 1019769
14:00+27ю2343100 0.0 10181851
17:00+27ю23428 0.0 10172076
20:00+22з3471100 0.0 1017108
11 августа, чт
чт1123:00+17с2497100 3.7 1018110
02:00+16юв119799 0.5 101724
05:00+15юз129796 0.5 101724
08:00+17зюз2493100 0.0 1017212
11:00+18зсз3590100 0.4 1018601
14:00+18зсз4667100 0.1 1018669
17:00+20зсз575276 0.1 10181655
20:00+14сз410732 0.0 1019917
12 августа, пт
пт1223:00+13сз310780 0.0 1020646
02:00+9зюз26958 0.0 1020124
05:00+11зюз31081100 0.0 1020319
08:00+14з397394 0.0 1020361
11:00+19зсз4854100 0.0 10191044
14:00+21з584597 0.0 10182061
17:00+21з584869 0.0 10172115
20:00+18з4106396 0.0 1016749
13 августа, сб
сб1323:00+15з312765 0.0 1017388
02:00+14зюз3128113 0.0 1016331
05:00+15з31076100 0.0 1015425
08:00+15з310805 0.0 1016553
11:00+21зсз610565 0.1 10151576
14:00+22сз61042100 0.1 10162273
17:00+21сз594117 0.1 10172234
20:00+16ссз25630 0.0 1018111
14 августа, вс
вс1423:00+11сз11730 0.0 102011
02:00+9сз11810 0.0 102110
05:00+7ссз11860 0.0 102210
08:00+12сз12650 0.0 1023182
11:00+18сз35450 0.0 10221372
14:00+20сз46385 0.0 10222053
17:00+20сз46380 0.0 10221956
20:00+15ссз25655 0.0 1022105